User: anonymous   Login
Location: Muenchen
(48.1800°N, 11.5800°E)
Time: 06:31:29
(UTC+02:00)
Language:

Iridium 73 - Orbit

View from above orbital plane
View from above orbital plane
View from above satellite
View from above satellite

Ground track
Ground track

The orbit data is extracted from the following two-line orbital elements,

1 25344U 98032C   18111.46843602  .00000162  00000-0  37245-4 0  9999
2 25344  86.4417  72.6698 0002867  93.3140 266.8392 14.49108777 52192
Epoch (UTC): 21 April 2018 11:14:32
Eccentricity: 0.0002867
inclination: 86.4417°
perigee height: 726 km
apogee height: 730 km
right ascension of ascending node: 72.6698°
argument of perigee: 93.3140°
revolutions per day: 14.49108777
mean anomaly at epoch: 266.8392°
orbit number at epoch: 5219

The dashed part of the orbit path shows where the satellite is in the earth's shadow,  

DLR